GFSSGP_500_spd_000.txt.gz
Wind_Speed
27 26 23 19 21 20 20 18 17 19 17 16 17 20 23 27 28 29 33 36 38 39 43 44 45 43 42 40 37 38 38 37 37 37 36 36 38 39 41 42 41 41 39 35 33 34 36 39 44
26 28 25 23 19 20 21 21 20 21 19 18 21 21 21 25 29 31 34 37 39 41 43 43 44 44 44 42 40 41 41 39 40 40 38 37 35 35 36 38 41 43 44 43 38 35 35 37 40
29 28 25 22 20 20 21 20 22 20 20 20 22 23 23 25 29 32 35 37 40 43 42 43 45 46 44 43 43 42 41 43 43 43 41 40 38 37 34 34 36 38 40 43 46 39 37 37 39
30 31 26 21 20 22 19 21 21 20 20 21 24 25 25 27 29 31 35 39 41 41 42 44 45 45 43 43 43 43 44 42 41 42 44 44 43 41 38 35 34 38 38 39 41 45 43 40 38
33 28 27 18 21 21 20 22 21 22 22 22 24 26 26 28 30 32 37 39 40 40 43 45 46 44 42 43 45 43 40 41 45 45 43 41 38 40 41 39 37 36 37 34 39 44 46 45 40
33 27 26 21 19 20 20 24 23 23 23 24 24 26 27 28 31 34 37 39 39 42 44 45 45 43 45 46 44 40 41 45 44 44 44 42 37 35 39 39 37 35 37 37 35 42 46 47 44
29 28 25 22 21 19 21 25 23 21 22 25 27 28 28 30 32 34 38 38 39 42 43 43 43 46 46 45 45 46 48 45 42 41 40 40 41 39 40 39 38 37 37 36 38 40 47 49 46
29 29 25 24 21 20 24 26 23 20 24 26 28 31 30 30 32 37 39 37 39 41 41 43 45 46 46 48 49 47 43 37 36 39 41 41 38 39 42 44 44 42 41 39 37 40 45 52 51
30 27 24 24 22 23 26 27 22 21 26 26 28 30 28 30 33 37 35 37 37 40 44 45 45 46 49 47 41 36 34 38 41 41 41 42 40 35 34 36 40 40 43 41 40 39 44 50 53
28 24 23 24 23 24 26 25 22 23 24 26 28 28 26 27 32 34 34 36 40 43 44 43 46 46 44 38 33 36 38 39 34 30 27 28 28 27 29 33 36 37 40 41 40 36 41 49 52
25 21 24 22 26 24 24 24 21 23 24 25 27 25 24 27 32 33 34 37 41 42 42 44 44 43 35 34 37 37 35 30 25 19 16 15 18 21 20 24 30 35 34 39 39 34 40 49 50
27 20 19 17 19 21 23 23 20 23 24 24 26 25 23 26 31 32 33 37 40 39 40 42 42 35 34 36 36 34 29 24 19 15 14 13 13 16 18 20 25 29 30 36 36 34 43 46 47
21 17 19 21 20 25 26 19 18 22 24 26 28 26 23 26 31 31 31 35 36 38 41 41 36 33 35 34 33 30 27 19 16 15 13 8 5 8 11 16 22 26 30 33 34 32 39 43 46
24 21 16 18 24 24 24 16 19 21 24 27 29 25 22 25 29 30 30 34 34 38 39 39 32 31 32 33 31 27 21 13 15 16 11 6 3 4 8 11 17 24 30 33 31 35 35 36 42
24 22 22 17 20 23 24 14 17 20 24 28 25 22 22 26 28 28 29 32 33 37 38 35 30 31 31 31 27 23 16 11 12 12 8 6 6 8 11 14 17 20 25 29 29 32 33 33 39
27 19 20 21 19 24 27 13 22 18 19 17 19 20 23 28 28 25 27 31 32 35 38 32 28 30 28 29 26 21 15 13 10 8 6 5 5 6 8 13 15 19 23 26 28 29 28 31 33
16 12 15 19 24 29 27 18 20 20 16 15 17 20 23 24 25 21 26 29 31 34 36 29 27 29 25 26 27 22 17 16 18 16 10 4 5 5 8 11 14 18 22 24 25 28 28 29 38
19 25 26 26 20 30 25 21 23 20 16 15 16 17 19 21 23 19 25 27 30 32 33 25 25 27 22 22 21 19 20 17 15 16 11 10 9 5 8 11 14 16 18 22 23 25 29 37 43
26 30 31 27 22 30 27 28 24 22 17 13 13 17 22 23 21 17 23 25 28 30 31 22 23 26 20 20 20 20 22 23 18 22 23 16 9 13 9 13 16 15 19 22 24 29 35 42 45
34 37 37 29 25 32 33 29 25 23 16 10 9 14 18 19 18 16 21 24 27 27 28 19 20 23 19 17 19 20 20 26 24 21 31 29 22 24 14 14 19 20 22 26 32 35 40 43 44
34 35 32 30 29 30 35 33 26 24 18 12 11 13 16 21 18 14 19 22 25 24 25 16 18 21 18 15 19 17 17 18 19 21 27 29 26 24 22 22 17 22 28 35 40 39 38 35 40
31 27 31 32 31 29 34 33 26 23 18 20 16 14 17 20 15 12 17 19 22 22 23 14 16 19 17 13 11 20 27 22 23 25 28 26 26 24 24 25 23 30 34 33 38 40 35 30 33
28 29 33 32 31 30 33 33 27 20 21 23 15 11 18 18 12 10 14 16 19 19 19 13 13 16 17 16 23 17 16 19 10 17 17 24 23 21 22 21 22 26 30 28 34 29 35 33 30
31 33 35 34 32 30 28 27 26 22 21 15 11 15 17 15 9 8 11 12 15 15 17 12 9 12 14 13 17 18 20 19 17 15 12 16 19 24 21 20 20 22 26 28 32 36 34 31 33
34 34 33 33 29 27 20 25 26 20 14 10 10 12 16 12 5 6 9 9 11 12 13 12 11 8 11 11 13 16 18 17 13 11 17 13 14 18 22 21 21 23 28 26 30 33 24 30 32
32 33 33 31 28 28 25 26 27 16 13 14 16 13 13 11 4 5 8 6 8 9 9 11 7 9 7 10 11 14 14 12 18 20 21 18 16 17 21 22 24 21 19 19 24 18 28 36 35
31 33 28 30 28 29 27 23 17 7 11 13 12 11 13 7 3 4 6 3 5 7 9 6 12 7 7 7 8 11 12 12 16 18 18 18 17 18 19 21 26 26 27 24 19 17 26 32 29
33 30 31 31 28 24 23 20 8 12 9 13 17 13 9 5 5 3 4 1 3 6 7 8 6 8 5 7 10 11 12 12 13 17 17 19 19 19 16 19 22 24 26 23 30 25 23 29 27
35 36 33 30 28 22 22 12 6 14 16 17 13 10 9 4 5 3 3 2 1 5 6 6 7 8 7 8 11 11 11 12 10 12 15 16 15 13 19 20 20 22 25 23 31 32 32 30 33
37 36 31 30 27 25 24 8 8 5 13 18 7 6 8 4 2 3 1 4 1 4 6 5 7 8 11 9 12 13 14 13 13 12 13 15 17 17 16 18 21 21 20 20 24 28 25 28 25

GFSSGP_500_spd_006.txt.gz
Wind_Speed
24 21 19 20 18 17 16 17 18 19 19 22 24 26 28 30 30 30 29 29 28 28 28 31 35 37 38 40 40 41 41 40 39 40 38 36 37 42 43 43 43 42 41 39 38 38 41 44 47
23 25 21 21 17 17 11 17 17 18 20 22 24 28 29 31 30 30 29 29 28 29 31 34 36 38 40 41 42 42 42 41 40 40 39 38 36 39 42 43 42 41 40 39 38 39 41 43 45
26 29 27 20 15 15 18 18 18 19 21 22 24 27 32 31 30 30 29 29 29 30 33 35 36 38 40 42 42 43 44 44 43 42 40 38 37 37 38 38 40 39 38 38 36 39 40 42 44
32 32 27 20 19 17 16 18 20 22 24 25 27 30 30 30 28 28 27 28 28 30 33 34 36 38 40 42 42 43 43 44 43 41 41 39 38 36 36 38 38 38 38 38 36 37 40 41 41
34 30 23 18 19 18 18 19 22 24 27 28 29 31 29 25 26 26 26 27 27 31 32 33 35 38 40 41 43 43 44 46 47 45 44 42 41 40 42 42 41 41 39 40 37 37 41 42 41
34 26 20 18 18 20 20 21 22 26 28 30 32 29 28 26 26 25 26 26 28 32 32 33 36 37 40 43 43 45 46 45 44 42 40 38 39 39 39 39 39 39 39 38 39 39 40 45 44
33 28 24 21 19 20 22 22 24 26 28 32 33 31 29 28 28 27 26 27 30 32 33 34 37 39 43 45 45 45 43 41 41 39 37 35 34 34 33 34 35 37 40 37 37 38 38 44 48
37 30 26 21 18 21 24 23 25 25 28 29 32 32 32 29 29 28 27 27 31 32 33 34 37 42 45 46 44 41 42 41 41 40 38 37 37 38 38 36 36 34 37 36 37 41 37 41 48
34 29 24 19 21 20 24 22 23 26 28 28 30 30 29 27 27 26 27 27 32 34 33 35 39 43 45 44 41 40 40 41 38 38 37 36 35 36 37 36 37 35 35 38 37 41 39 41 44
31 24 22 22 24 20 21 20 25 25 25 27 31 30 26 26 26 26 26 28 33 35 34 37 40 43 45 40 38 37 42 40 38 34 29 28 30 32 33 35 35 34 33 36 38 41 40 42 44
28 23 26 25 25 21 20 20 21 24 27 29 34 30 26 28 27 26 26 30 35 36 36 37 41 42 42 38 36 38 42 38 35 26 23 23 25 26 26 29 33 38 38 33 38 40 41 43 41
29 25 27 23 21 22 21 23 22 26 30 33 34 29 29 28 26 25 27 30 33 35 35 36 40 42 37 36 36 37 35 29 27 27 23 23 21 22 22 21 27 36 42 34 33 44 40 41 43
30 26 30 27 21 23 22 22 23 26 29 30 30 30 30 30 26 25 27 29 33 35 33 35 38 40 34 35 36 35 31 28 26 26 21 19 16 15 18 17 18 26 38 40 35 40 45 41 40
32 29 30 33 24 20 23 25 24 27 26 24 26 30 29 31 28 25 25 28 32 34 31 35 37 34 33 34 34 32 31 28 26 27 13 14 13 10 11 17 19 22 30 35 38 37 43 44 42
30 32 31 26 26 28 30 27 28 29 25 24 25 29 30 31 31 26 27 29 32 33 30 34 36 30 32 31 29 29 27 26 24 20 10 9 9 4 8 14 20 23 24 33 37 38 43 47 46
31 32 26 28 29 36 35 30 24 26 25 25 25 27 30 33 32 29 29 29 31 30 30 32 33 28 30 27 26 25 24 25 20 18 9 5 4 6 2 7 16 22 26 34 38 38 45 46 45
32 27 25 27 32 32 33 27 21 23 32 24 27 27 29 31 31 31 28 28 29 28 29 29 28 26 28 25 25 23 24 23 23 18 13 2 2 2 3 6 12 19 24 29 34 39 45 43 42
27 28 29 26 31 26 24 29 25 25 29 28 28 28 25 29 31 31 27 28 28 27 27 27 24 25 25 22 27 19 19 20 18 18 15 3 2 4 6 8 11 20 24 28 32 39 44 40 42
28 26 26 25 29 28 30 32 28 30 30 28 26 26 26 29 31 28 27 27 26 25 25 24 20 23 22 17 19 16 19 16 24 27 21 16 9 8 9 12 15 20 24 27 32 36 36 36 38
24 22 23 28 30 34 34 32 32 30 29 27 24 22 23 28 32 28 28 24 24 23 23 20 18 21 19 12 16 15 18 14 23 24 25 23 18 11 9 12 16 20 25 27 28 32 34 36 38
20 20 22 28 32 35 34 29 30 25 26 24 22 25 24 30 31 25 24 22 21 20 20 17 15 16 18 15 18 13 14 18 22 21 21 23 22 14 11 11 16 22 25 28 31 33 33 35 40
24 20 23 28 32 32 30 28 28 25 25 23 23 24 25 28 22 21 20 18 19 18 17 15 12 14 13 15 21 14 9 12 16 20 18 17 19 13 8 12 17 21 25 28 31 34 34 36 40
24 26 27 29 30 31 24 29 24 24 20 18 19 22 24 18 19 19 17 16 18 16 15 15 12 12 12 14 19 14 9 12 14 16 15 15 17 17 16 10 13 19 26 27 31 34 35 35 36
28 29 28 27 30 31 22 26 18 16 18 14 17 20 17 14 18 17 14 15 16 13 13 14 12 9 11 12 15 15 12 11 12 15 13 14 16 16 13 12 13 17 19 26 32 35 36 35 39
27 27 26 27 26 23 24 24 17 19 19 16 18 17 16 16 18 16 12 15 13 11 11 12 11 10 7 11 14 15 13 13 18 15 12 18 19 19 17 13 16 19 19 25 30 34 39 42 41
26 25 25 23 21 14 24 20 11 21 19 17 18 11 11 11 13 14 10 14 10 9 9 10 12 11 3 7 11 12 13 12 16 19 17 15 15 19 19 20 21 23 23 26 30 31 35 53 28
29 27 23 24 25 26 18 18 15 16 16 15 15 11 11 10 11 9 10 12 7 8 8 9 11 11 4 4 7 8 12 12 16 18 21 20 15 14 15 19 18 21 28 23 26 33 36 25 37
31 26 24 22 23 21 11 9 9 12 15 16 16 13 10 12 9 7 11 10 5 6 8 8 11 10 2 2 4 6 10 10 12 13 15 19 14 15 15 17 19 25 20 27 25 28 24 30 21
33 28 23 26 23 17 12 9 16 15 17 16 18 14 13 11 10 6 11 7 5 5 6 8 11 6 2 4 3 5 7 8 10 11 15 18 14 17 17 19 23 21 24 21 19 22 25 27 19
36 30 29 28 26 24 20 11 18 14 18 14 15 16 12 10 8 6 9 5 3 4 5 7 9 6 3 5 3 4 6 5 9 12 14 18 18 20 19 22 28 21 16 16 16 21 18 24 22

GFSSGP_500_spd_009.txt.gz
Wind_Speed
18 21 19 17 17 12 11 14 19 17 19 20 24 24 26 28 27 32 32 33 31 32 34 32 33 35 36 38 40 41 41 41 43 43 44 42 41 41 41 42 42 44 46 43 41 41 42 39 40
22 22 25 22 11 2 14 14 22 22 24 25 26 26 28 30 30 35 35 32 35 35 32 35 31 35 37 39 39 40 41 43 45 46 45 45 42 42 43 42 42 44 47 45 42 40 40 40 38
23 24 26 22 9 8 16 7 26 24 24 26 28 27 29 34 32 35 35 35 36 36 35 31 35 35 37 39 41 42 44 46 47 47 46 45 44 43 42 42 42 44 45 45 42 41 38 39 40
23 25 24 14 4 14 21 27 24 22 28 27 28 31 30 31 34 35 36 36 35 35 35 34 35 35 36 38 41 44 47 47 47 47 48 48 46 46 45 44 42 41 43 43 41 40 39 39 41
23 27 25 13 14 16 27 22 22 19 19 22 32 29 34 29 34 35 35 35 35 33 33 37 33 34 35 38 42 47 48 48 49 49 48 46 45 47 46 43 45 42 40 39 39 39 38 37 40
26 30 27 13 17 20 17 31 20 19 16 19 31 30 35 34 34 34 35 36 33 32 32 33 32 32 37 40 45 47 48 47 45 44 44 43 43 43 41 39 42 45 45 42 39 39 38 38 39
28 32 31 22 18 22 23 30 26 21 18 17 32 32 36 34 34 36 36 34 33 31 30 32 33 34 36 42 47 48 46 43 41 43 44 43 42 41 42 40 35 39 42 42 41 39 37 39 39
31 36 29 22 18 18 22 31 27 26 23 28 32 34 33 37 35 38 37 32 31 28 30 33 33 33 39 45 45 46 41 38 39 42 42 39 39 37 38 39 38 35 35 39 40 39 37 40 40
35 33 25 17 18 21 23 20 21 33 25 33 33 31 32 34 40 36 35 32 30 29 31 32 34 37 41 46 47 41 37 38 38 36 35 36 35 33 31 35 37 39 37 34 38 40 37 41 42
36 33 24 20 23 27 26 23 20 29 27 29 29 30 31 36 32 34 33 32 30 29 32 34 36 38 43 45 42 38 38 40 39 40 34 32 32 31 31 30 34 35 38 36 35 37 37 43 41
36 28 25 26 27 29 28 23 21 26 26 21 34 35 31 30 29 31 31 30 31 32 34 36 37 38 43 44 39 37 40 38 38 37 32 30 27 28 31 31 30 32 34 34 34 36 40 46 40
38 29 26 27 27 31 31 25 27 29 28 29 31 33 32 29 29 31 31 31 30 30 33 35 36 40 42 39 37 36 34 35 33 31 30 27 20 26 25 22 23 25 32 35 30 35 41 45 42
35 31 24 26 28 31 37 33 29 25 29 27 28 29 25 29 32 30 31 30 31 32 35 35 37 41 39 35 35 31 30 32 32 32 28 22 18 19 16 15 17 20 27 36 34 36 41 43 43
35 32 25 26 28 29 33 25 34 28 39 34 28 26 27 29 29 31 33 32 32 32 33 34 37 38 34 34 32 28 28 33 33 32 29 19 16 15 13 11 16 17 24 36 40 36 43 45 43
34 29 28 27 28 32 34 27 33 34 40 31 23 26 28 29 30 32 33 33 32 32 33 34 37 35 31 33 29 29 29 29 33 32 28 12 12 12 8 9 13 15 15 35 42 36 43 44 42
29 29 27 22 24 33 32 26 19 36 30 26 27 26 27 30 30 31 33 33 30 33 33 33 36 31 29 31 28 26 26 26 31 29 26 16 7 9 6 8 13 17 16 23 40 35 43 45 39
31 27 25 22 24 29 34 29 17 29 26 27 30 30 29 29 30 29 32 32 30 33 32 32 34 27 28 28 25 25 22 22 27 29 19 12 7 6 6 4 9 16 19 22 32 37 39 46 42
24 22 24 23 19 29 33 28 23 25 28 30 32 29 28 29 28 28 32 34 31 32 30 32 30 24 27 22 17 20 20 23 24 24 22 14 5 4 3 2 6 12 18 23 30 37 37 43 43
22 23 25 25 23 27 31 33 26 27 33 35 28 27 27 28 28 30 34 36 29 29 27 29 26 22 23 14 18 19 16 23 22 20 22 16 5 1 1 3 7 12 16 22 28 33 38 42 45
28 28 26 24 23 29 33 31 29 33 31 23 24 25 25 27 28 29 34 29 27 25 25 26 23 19 18 18 20 18 13 21 20 19 21 18 8 4 2 4 8 12 15 20 26 30 36 39 42
29 28 24 24 22 29 29 28 23 21 25 24 23 23 24 24 26 29 27 26 24 23 23 23 21 17 16 17 20 18 15 17 16 17 18 18 10 5 5 7 10 14 16 20 24 29 36 38 40
31 24 24 27 27 26 21 25 23 19 20 21 22 18 20 22 23 24 22 23 21 21 22 21 19 15 17 16 19 17 16 15 17 17 17 15 15 8 5 8 11 15 20 21 26 30 33 34 34
28 27 26 29 31 28 23 22 15 20 17 15 16 18 17 21 19 18 20 19 18 20 20 20 17 16 15 15 16 18 17 16 15 14 13 13 10 12 5 9 12 17 20 23 26 29 30 32 33
31 29 31 29 25 25 19 19 13 11 18 16 16 19 20 19 17 20 21 17 17 18 19 17 15 14 13 13 15 16 13 17 15 12 11 12 12 9 7 6 13 20 22 25 28 29 29 31 35
36 33 29 23 20 20 13 16 15 15 20 19 19 19 19 17 18 18 15 15 16 16 18 15 14 14 13 11 13 15 17 17 16 8 10 14 13 12 8 10 9 17 23 26 28 28 26 32 34
32 27 24 17 12 12 22 24 7 14 18 19 15 17 16 12 15 14 12 12 15 13 15 13 12 14 11 9 10 12 17 14 11 13 11 9 13 15 13 13 13 13 21 26 28 27 27 33 36
32 31 19 22 25 16 14 16 23 22 16 16 14 15 14 15 15 12 10 11 13 11 13 12 13 14 9 6 9 10 14 12 13 12 14 9 11 14 12 12 12 14 17 24 28 28 27 28 32
35 25 22 21 21 20 16 16 12 20 7 19 18 17 13 15 15 11 10 11 9 10 11 11 12 13 7 4 8 9 10 13 14 11 15 10 7 11 13 13 14 20 16 21 22 25 26 31 32
36 33 26 23 21 13 13 11 20 18 18 14 17 16 13 14 12 8 8 10 5 8 9 10 11 8 8 2 6 8 9 12 13 12 10 12 9 11 14 16 17 20 18 20 23 30 16 28 41
35 33 29 29 23 20 17 12 28 27 18 15 13 15 10 12 13 5 7 7 3 6 8 9 8 10 8 4 7 9 9 12 12 15 14 15 14 12 13 17 20 22 21 21 18 17 29 18 21

GFSSGP_500_spd_012.txt.gz
Wind_Speed
16 20 22 22 20 14 4 16 20 10 20 37 26 26 29 33 30 31 32 32 34 37 36 35 36 38 37 37 38 39 38 39 41 42 43 44 45 48 49 48 46 43 44 43 41 39 39 42 48
20 22 23 24 14 7 19 22 12 16 27 37 34 34 33 36 30 33 33 31 33 36 36 35 36 36 35 38 39 38 38 39 42 45 47 48 49 49 51 50 47 46 44 44 43 41 41 39 46
23 22 24 24 18 3 19 10 14 24 30 35 34 37 36 31 30 32 34 36 37 38 37 34 36 38 37 39 38 37 39 42 44 47 48 49 48 47 48 50 47 46 45 45 44 43 42 39 42
23 24 23 23 8 6 20 28 26 39 40 39 38 33 39 31 30 33 34 35 36 39 42 37 34 36 37 37 37 36 40 43 46 48 49 49 47 46 47 46 48 47 46 44 43 44 43 40 40
31 29 25 24 12 23 20 23 28 30 30 17 31 34 40 39 31 35 35 35 37 39 41 39 38 36 38 37 35 37 41 45 47 47 46 44 46 46 47 46 46 46 47 46 45 45 45 42 40
31 26 24 18 9 31 25 19 23 33 29 16 29 38 42 41 32 35 34 35 38 39 37 39 36 36 36 38 37 40 44 47 48 45 42 44 42 41 42 45 46 46 42 41 46 45 44 42 42
21 26 27 24 21 15 16 29 40 37 36 30 37 40 39 46 33 33 36 38 40 38 37 35 36 33 35 37 37 41 47 47 45 41 42 43 42 41 41 38 42 42 42 39 42 46 43 42 42
21 25 24 27 15 14 25 30 21 32 28 32 34 34 37 42 36 38 40 36 34 32 32 33 32 34 39 39 36 43 46 44 41 42 45 46 45 44 37 35 38 39 38 40 37 43 47 41 42
29 28 28 26 13 21 17 17 25 32 35 32 37 41 37 32 33 36 34 34 34 31 30 27 30 35 37 37 40 44 44 41 41 43 42 42 41 39 36 33 32 34 36 37 38 39 43 43 43
31 35 30 23 17 26 28 33 32 29 27 25 27 43 40 36 31 27 28 29 32 30 28 29 32 35 35 37 42 43 40 40 39 39 37 36 36 34 32 29 28 28 31 36 38 34 38 42 43
34 36 31 25 25 30 29 29 27 26 31 33 37 39 47 31 23 25 30 31 30 30 30 32 33 34 35 39 42 41 39 36 36 35 34 34 32 32 25 25 28 29 29 32 37 36 33 42 42
37 33 30 32 25 29 25 24 27 32 29 29 39 34 40 43 30 26 25 29 27 25 27 30 33 34 34 39 39 38 36 34 32 34 35 33 33 29 24 26 25 28 28 31 33 36 34 38 42
40 31 30 34 30 24 23 25 30 29 30 32 39 36 31 25 22 26 29 28 30 31 30 31 35 36 36 39 37 36 34 33 30 33 32 33 28 22 24 21 17 16 19 26 33 34 32 36 40
36 35 32 38 25 21 24 28 33 23 32 36 31 29 25 27 26 26 28 30 31 32 31 33 35 35 37 36 34 32 31 28 27 29 33 31 28 18 17 17 13 14 13 22 30 32 31 34 38
37 36 35 32 23 24 24 31 27 24 32 32 31 26 24 29 30 30 28 29 32 34 32 35 34 33 35 33 33 27 26 25 26 29 28 29 23 13 14 14 10 13 12 20 30 32 30 32 39
35 35 36 23 21 23 29 34 33 22 27 32 36 28 32 31 29 31 31 30 32 36 32 34 33 34 34 31 31 21 20 27 27 26 28 25 17 13 13 12 8 10 13 17 29 36 32 34 39
30 33 29 21 19 19 30 37 33 27 22 30 32 32 36 34 27 29 29 31 32 35 32 32 30 31 30 29 24 22 25 23 29 26 28 24 14 12 11 11 7 7 11 14 31 36 33 33 39
22 24 19 17 11 21 33 30 33 33 25 30 31 38 37 30 29 27 28 31 33 33 31 30 28 30 26 24 24 24 23 20 26 24 25 21 13 11 9 10 3 3 8 11 27 36 32 33 38
22 17 19 15 20 17 19 20 34 33 31 28 28 33 31 33 29 25 26 29 32 31 29 27 27 28 23 25 24 25 21 20 21 24 25 22 14 10 7 5 3 3 9 15 25 34 30 33 39
25 24 23 23 22 29 29 29 36 29 20 19 22 22 24 29 25 24 26 28 29 27 27 24 26 25 21 24 23 21 20 21 21 22 24 20 16 9 6 3 0 5 7 16 22 32 30 35 37
29 28 26 22 24 26 26 31 25 18 23 23 26 26 21 23 22 23 23 24 23 25 25 22 24 23 21 22 22 20 23 22 24 19 21 19 17 9 3 2 3 7 11 15 21 29 30 33 37
31 24 16 22 26 28 21 27 23 22 17 20 26 28 19 19 19 21 19 22 22 24 23 21 22 21 19 19 21 18 17 21 21 21 20 18 12 12 2 1 4 8 11 17 20 27 30 35 39
27 18 21 26 28 27 29 30 16 11 11 20 26 34 27 18 22 21 20 24 22 21 21 19 19 19 18 17 17 16 18 21 19 16 16 17 15 13 5 4 6 11 14 16 22 26 36 31 36
22 23 25 31 26 31 23 21 13 4 16 21 27 35 26 19 22 18 20 21 17 18 17 18 18 16 17 14 14 14 19 21 17 14 17 20 15 10 8 3 9 14 15 19 21 23 20 22 24
24 29 33 29 28 28 13 16 11 10 24 33 30 17 26 20 17 17 21 18 14 16 15 16 16 14 15 11 11 14 16 19 14 13 17 16 14 9 10 10 13 15 16 18 22 24 24 22 21
32 35 31 30 23 9 15 24 16 25 22 24 19 16 20 18 14 18 20 15 14 13 14 15 15 14 14 9 9 12 14 15 14 16 13 14 12 12 12 10 9 16 17 18 21 22 24 25 26
35 34 25 27 20 22 17 14 16 26 24 30 23 16 16 16 15 18 18 12 15 10 14 15 14 12 11 7 7 10 14 13 13 14 15 12 11 10 10 11 13 19 18 18 17 15 25 26 28
35 27 31 27 25 25 19 16 19 27 27 25 29 23 17 15 14 17 12 10 11 10 13 14 13 10 10 7 9 10 12 11 11 13 13 15 10 12 14 10 18 17 18 17 16 15 18 22 24
36 37 36 26 23 18 9 9 22 31 22 28 34 19 13 14 14 13 6 10 6 9 12 13 12 11 11 4 8 9 11 12 12 17 15 13 10 13 14 11 11 20 18 15 14 16 18 21 24
28 33 35 30 24 23 20 18 22 23 27 29 31 16 16 13 11 6 5 8 5 8 11 13 12 10 10 8 6 10 10 12 13 18 20 11 10 15 19 16 20 24 20 17 18 17 18 21 24

GFSSGP_500_spd_015.txt.gz
Wind_Speed
12 15 19 20 21 15 12 12 9 19 24 29 33 34 38 36 39 37 33 34 35 36 34 31 33 33 33 35 35 35 35 36 36 35 35 38 41 43 45 44 42 41 40 40 38 38 37 38 38
15 17 18 20 21 17 13 13 20 21 29 35 36 35 39 43 42 39 38 38 35 35 31 29 32 36 35 34 35 37 37 36 36 36 37 39 41 44 46 46 44 41 41 40 40 41 40 40 40
16 20 20 26 23 18 13 14 15 20 27 33 37 44 47 48 41 36 37 38 37 37 35 31 32 33 36 35 35 37 37 36 36 38 40 42 45 46 44 43 43 42 40 41 41 41 44 43 42
18 23 31 32 21 17 9 21 8 19 27 37 40 45 44 44 39 35 35 38 39 38 39 36 35 34 33 33 35 35 36 37 37 39 43 45 46 44 42 41 40 38 38 39 41 43 44 46 45
26 34 35 31 13 15 18 25 25 26 27 28 41 47 46 45 38 37 39 38 39 39 41 39 37 36 35 33 32 34 35 36 37 41 45 46 43 40 41 39 38 39 41 41 42 43 45 46 46
30 36 34 26 11 12 20 24 26 26 20 34 38 43 46 44 40 37 38 35 39 40 37 34 34 33 32 32 35 37 38 37 39 43 42 40 38 41 44 44 44 45 44 43 42 44 42 45 45
33 34 35 20 15 8 10 29 27 30 20 28 33 34 43 42 41 40 39 39 40 33 32 32 32 32 31 31 34 35 36 39 41 40 39 38 40 42 43 45 46 46 45 43 41 41 42 42 46
34 35 28 27 21 9 9 28 23 16 25 31 38 40 41 42 36 36 43 41 28 23 24 26 26 25 28 30 30 31 32 37 39 37 37 38 40 42 41 38 40 41 39 39 40 39 40 39 43
36 35 38 27 25 18 16 17 26 26 30 38 42 42 37 38 38 43 39 37 29 27 27 24 22 24 27 30 33 33 34 37 37 37 36 37 36 38 38 35 35 35 34 38 39 37 37 36 42
38 45 32 28 25 21 21 25 29 30 31 37 38 41 40 36 34 38 39 34 29 24 26 24 26 26 30 33 34 33 34 35 36 33 35 34 36 38 35 32 30 26 24 28 32 35 34 34 39
41 40 32 26 26 17 19 19 20 29 30 30 34 34 33 32 35 23 20 28 27 28 30 29 28 27 31 33 33 34 34 35 32 34 34 34 35 35 32 28 23 25 27 27 28 32 31 33 36
55 54 39 28 30 23 17 18 18 28 27 28 33 31 29 32 19 21 26 27 30 30 31 30 29 30 32 32 32 34 32 30 31 30 29 29 33 35 28 22 22 26 28 28 28 31 31 33 33
57 56 51 46 40 27 23 18 25 27 20 29 31 32 26 25 21 22 23 26 30 28 29 31 30 32 32 32 33 31 32 26 25 27 31 31 33 29 21 20 22 22 22 22 26 29 30 33 30
61 60 47 31 32 29 21 24 26 22 20 29 33 31 25 25 26 27 24 28 29 30 32 34 33 32 30 32 32 32 28 22 26 34 32 29 33 26 16 17 20 18 15 16 21 27 31 33 30
31 28 28 29 31 17 22 26 19 19 23 29 36 30 26 22 28 29 22 28 31 31 31 35 32 30 28 30 28 30 22 25 29 30 30 30 30 20 14 15 17 13 11 12 17 25 30 30 32
25 28 28 25 18 11 16 21 19 28 29 29 34 27 27 34 34 24 20 24 28 31 31 31 32 28 29 30 28 28 27 28 30 27 28 27 28 22 15 15 14 8 11 10 16 24 28 29 31
24 23 23 10 9 11 10 21 20 27 32 31 27 31 33 34 40 29 24 25 28 31 32 30 30 27 28 27 28 28 28 29 27 24 26 27 26 22 16 13 10 6 9 11 16 26 27 26 27
20 22 17 6 5 9 14 32 26 29 30 32 32 37 38 35 38 30 24 25 28 29 31 30 27 26 26 26 27 27 27 23 22 22 25 25 23 17 14 11 7 3 7 11 17 29 28 27 28
24 25 17 12 7 20 23 18 23 18 29 31 34 26 20 26 33 30 23 25 28 28 28 27 25 25 26 26 24 26 23 25 24 24 21 23 20 14 11 9 7 1 6 8 21 30 30 25 25
26 23 21 16 13 22 19 21 22 20 34 34 24 25 26 21 26 24 21 21 24 25 26 24 23 24 24 24 23 23 23 21 22 21 21 19 17 16 10 5 4 1 7 12 23 32 29 23 29
26 25 18 22 19 26 23 32 33 34 30 25 21 23 27 27 26 22 22 22 21 24 26 22 22 22 22 22 21 22 21 23 25 20 18 19 15 14 7 3 1 4 8 12 22 28 27 25 29
29 20 21 23 21 29 30 33 28 20 20 15 16 28 28 34 32 23 22 21 22 25 21 19 19 20 20 20 18 18 21 22 22 16 17 20 14 14 3 2 2 5 10 14 21 29 25 27 28
23 22 21 16 12 18 26 29 15 16 16 14 20 28 32 39 34 20 19 18 21 21 17 16 17 17 18 18 15 16 20 22 18 16 19 20 17 11 4 3 5 7 10 15 19 26 26 26 29
20 22 20 13 16 29 27 27 7 8 11 19 24 30 35 40 20 18 16 19 21 16 15 14 15 16 17 15 13 15 17 17 18 19 20 21 15 11 7 5 8 10 11 17 20 22 25 32 26
27 15 24 26 31 29 19 24 3 7 11 17 23 25 29 17 15 16 15 18 17 16 12 14 14 15 16 9 11 13 15 16 17 20 16 18 16 12 9 9 12 11 13 19 20 21 20 21 25
27 27 30 31 30 15 9 15 16 14 12 16 23 24 26 18 15 17 15 16 14 13 11 13 15 15 12 7 10 12 15 13 17 19 17 15 15 17 11 11 13 12 12 20 21 18 15 20 26
30 32 22 27 26 18 11 13 13 14 17 21 27 24 31 19 20 17 17 13 12 8 10 12 13 11 9 7 9 12 14 15 18 17 16 15 18 17 11 11 15 14 13 15 18 19 20 21 23
33 26 34 35 32 27 21 18 14 20 24 29 29 25 30 19 21 16 13 9 9 6 11 13 12 12 6 6 10 11 12 14 18 17 15 17 15 14 11 14 20 16 16 15 12 17 16 19 20
34 38 38 34 28 22 18 16 19 19 22 27 24 27 30 19 19 14 10 9 3 7 12 12 12 11 9 7 9 11 13 13 20 20 18 17 21 20 15 17 19 15 16 16 15 18 17 19 20
31 38 41 39 27 23 17 13 14 18 22 22 19 25 23 12 14 9 7 8 3 8 13 13 13 10 9 8 9 11 11 13 20 22 20 19 21 20 20 21 20 18 18 18 16 17 18 19 21

GFSSGP_500_spd_021.txt.gz
Wind_Speed
15 13 14 14 10 17 22 23 24 22 22 26 31 29 28 24 28 30 30 33 35 37 36 38 39 38 38 38 38 35 35 34 32 32 31 30 29 31 33 33 32 32 32 32 34 35 34 33 34
18 17 18 19 17 21 26 29 26 28 27 25 27 30 27 22 23 27 30 34 32 32 33 35 36 37 38 40 40 39 36 33 32 32 32 30 32 33 34 35 35 35 34 34 34 35 36 35 34
23 22 21 19 22 26 27 25 25 30 27 27 27 26 23 22 24 27 26 27 30 31 31 33 33 34 35 34 32 33 34 34 33 32 33 32 35 36 37 37 38 37 36 35 34 34 36 38 37
25 26 24 19 26 31 28 24 23 24 32 29 31 30 23 15 21 26 27 25 28 29 31 32 31 30 30 32 33 33 31 32 34 35 34 36 38 38 37 39 40 40 38 34 33 32 34 35 36
26 29 26 23 24 30 30 29 25 26 33 39 37 31 21 25 27 27 29 28 29 30 31 31 29 28 27 28 29 29 32 34 33 35 37 37 37 38 40 41 41 40 41 38 36 36 36 36 37
28 29 26 28 24 33 33 30 27 36 37 38 36 29 23 24 29 30 29 28 32 32 29 29 29 32 33 33 34 37 38 37 37 38 38 38 39 38 40 42 41 39 38 39 40 41 42 41 41
32 36 32 30 30 29 31 30 34 36 32 39 39 24 23 30 29 30 25 28 29 24 22 24 28 32 33 36 35 35 36 38 41 42 42 39 40 41 41 41 39 37 37 39 40 43 43 44 43
39 43 35 31 32 27 25 32 36 34 34 37 38 31 29 33 28 26 27 26 24 18 24 27 30 32 35 35 36 36 36 38 39 40 40 39 37 38 36 34 35 37 37 38 38 40 41 43 44
39 42 33 35 35 33 25 29 32 36 35 36 41 41 33 32 31 29 27 26 20 23 25 28 33 34 36 36 35 36 36 37 36 38 38 37 37 33 31 34 36 37 39 38 41 41 42 42 44
44 41 36 38 38 36 33 32 32 38 35 31 35 32 34 30 29 26 24 24 20 24 27 32 36 36 39 39 39 38 37 36 35 35 36 35 33 29 31 35 32 35 37 40 43 43 43 43 43
42 46 43 42 41 40 42 36 40 39 32 26 35 35 31 25 24 22 23 22 23 29 37 36 37 37 38 39 38 36 33 31 32 32 32 29 27 30 32 33 32 37 38 37 36 35 34 34 35
51 49 48 46 42 45 44 48 46 45 40 35 36 34 28 24 24 21 23 24 25 28 37 37 36 37 37 38 37 34 31 32 31 31 29 27 31 33 31 32 31 33 29 29 29 28 30 34 35
57 53 51 51 49 46 50 53 54 45 37 30 36 32 19 25 21 21 21 21 25 31 35 38 37 37 35 37 35 32 32 33 31 31 30 32 35 37 31 30 31 30 28 27 27 30 31 33 34
53 55 55 53 52 52 55 59 55 28 23 32 34 25 21 21 17 24 26 24 25 27 31 35 38 32 34 36 35 33 34 35 32 32 32 31 31 30 30 33 31 28 25 24 27 28 29 31 32
59 60 59 55 49 55 53 51 27 11 22 29 24 18 17 15 21 28 27 18 18 23 27 34 33 31 33 36 34 33 33 34 32 34 30 31 29 28 29 32 29 25 24 24 24 23 21 23 25
62 60 53 42 45 24 35 17 12 17 27 26 19 17 16 16 24 27 23 22 21 23 26 32 34 29 31 34 34 33 32 33 32 33 32 29 28 24 27 27 25 22 22 21 20 18 18 19 25
62 49 48 38 21 25 32 19 18 26 26 20 20 19 14 13 19 22 21 21 24 26 29 33 33 30 32 35 35 33 32 33 32 31 29 31 28 26 26 25 21 19 18 18 16 17 15 19 24
47 50 32 14 12 27 32 28 24 24 23 25 19 14 16 15 19 21 17 25 28 31 33 35 30 29 34 36 33 32 32 33 31 30 31 29 22 24 25 22 19 16 14 15 13 12 11 20 22
53 36 22 13 16 30 33 37 20 23 19 17 20 16 12 15 22 25 30 29 32 29 35 34 27 31 35 33 32 31 32 32 30 32 27 22 23 24 23 18 15 13 11 10 10 9 14 19 21
30 25 15 14 19 35 31 31 26 26 22 21 17 12 15 15 20 26 27 33 31 35 35 26 27 31 32 29 30 30 31 29 29 26 23 24 26 24 20 17 11 9 8 6 9 13 21 19 18
33 27 21 16 23 36 34 30 27 25 25 19 14 14 14 15 19 24 24 34 32 35 25 24 26 27 28 28 28 29 29 26 26 27 24 25 25 22 15 10 7 5 4 5 11 20 22 17 23
37 30 26 24 31 35 40 36 31 28 25 17 13 15 13 10 11 15 21 26 28 23 21 23 24 27 27 27 28 29 26 26 26 25 24 22 21 19 13 5 4 2 1 5 21 24 21 14 20
37 30 29 28 32 40 40 43 19 29 15 13 10 7 6 9 16 22 21 18 21 19 20 23 24 24 27 26 27 26 22 23 23 22 22 20 18 12 3 2 1 2 4 14 24 24 17 19 20
36 34 36 37 38 47 35 37 15 15 11 13 7 5 8 12 20 23 19 18 18 20 19 20 22 24 25 25 23 18 20 21 22 20 17 17 13 9 1 0 3 5 7 18 24 23 18 21 22
45 43 44 44 47 51 27 34 9 21 16 15 10 3 6 12 18 24 20 17 15 18 16 19 20 21 22 21 16 18 19 19 20 14 14 14 14 6 3 4 6 7 12 20 23 21 19 20 22
45 42 49 51 49 43 29 29 15 19 22 11 8 3 6 12 16 25 18 16 14 13 15 17 19 18 20 16 15 17 16 18 16 14 14 11 10 4 6 7 9 10 13 20 22 19 20 18 21
44 47 45 45 43 36 33 23 26 26 16 9 4 1 5 14 19 23 13 14 10 12 12 17 16 17 18 10 14 13 14 17 13 10 13 10 4 7 9 9 12 16 19 21 23 22 22 22 20
40 46 44 42 41 39 31 26 26 24 13 6 3 2 6 13 21 12 13 11 9 9 11 16 14 14 14 11 11 11 13 15 9 12 9 10 8 11 10 11 14 15 19 22 21 20 22 20 22
42 43 43 37 37 36 27 27 21 21 16 10 4 2 9 15 17 14 12 9 11 7 10 12 11 12 12 9 8 9 12 12 9 14 15 13 11 13 10 12 15 17 18 21 19 21 22 20 24
38 39 34 34 33 29 26 25 24 22 13 9 5 2 11 11 14 12 12 9 9 6 9 9 9 9 9 6 9 9 11 14 11 11 14 14 13 12 12 11 12 13 15 17 17 18 18 26 27

GFSSGP_500_spd_024.txt.gz
Wind_Speed
16 19 19 16 16 18 21 24 27 27 27 27 25 27 28 30 34 28 26 28 32 35 37 36 38 38 38 38 38 38 37 36 37 36 36 35 34 33 33 33 32 32 32 32 32 32 31 30 31
19 19 22 20 19 21 24 26 29 27 25 25 29 30 28 25 27 28 28 28 28 30 33 35 36 36 38 38 39 38 37 34 33 34 36 36 34 33 33 33 34 34 34 35 35 35 34 32 32
23 23 23 23 22 24 27 30 29 28 30 28 27 28 28 25 25 29 27 26 28 30 33 36 35 35 35 36 34 33 34 35 34 34 35 36 35 36 35 34 36 36 35 37 37 37 36 35 33
27 26 26 23 26 28 32 34 34 29 27 27 32 32 30 32 32 28 29 27 28 30 34 37 38 37 37 37 34 32 34 33 31 34 38 39 38 37 37 36 37 35 35 37 38 39 37 37 36
28 28 27 24 24 31 34 36 37 31 28 32 34 32 33 30 25 27 26 26 27 30 35 37 36 34 32 32 30 32 34 32 35 34 32 36 36 36 36 33 35 37 37 38 38 38 38 37 37
30 30 28 26 24 28 30 39 39 31 29 34 34 32 33 28 23 25 25 25 26 31 33 30 30 30 28 30 31 33 36 36 38 38 40 39 40 40 39 37 39 39 40 40 39 37 37 37 37
30 32 30 28 26 28 31 39 37 34 33 36 37 33 32 31 31 33 28 26 28 31 28 28 31 32 30 31 34 35 36 35 37 37 40 43 42 41 39 38 38 39 39 39 38 37 36 36 38
35 43 41 37 33 36 33 38 36 36 32 34 35 39 35 32 37 38 28 26 28 31 29 32 32 33 35 35 37 40 38 36 35 35 35 38 38 35 34 34 35 35 33 36 38 39 38 36 35
44 48 42 31 32 30 36 37 36 37 37 36 37 40 36 33 32 28 26 27 31 29 30 33 36 36 38 38 39 42 42 41 40 40 39 39 38 36 35 32 30 30 33 36 36 38 39 39 39
51 50 46 35 39 36 39 35 36 40 38 34 40 41 38 37 33 25 26 29 29 28 30 33 36 36 36 37 39 41 42 39 38 37 36 34 34 34 34 33 31 33 35 36 34 35 38 39 40
46 48 39 40 36 42 38 40 44 42 41 36 45 46 42 42 34 29 28 32 25 29 30 32 37 37 36 36 39 38 38 36 33 33 33 30 32 32 29 30 32 33 34 35 33 34 36 37 40
51 49 47 42 39 44 43 44 40 44 44 44 47 55 39 44 33 31 30 31 23 28 30 34 38 40 36 36 36 36 34 32 32 32 29 30 32 32 34 35 35 36 34 34 33 32 32 32 32
54 50 50 51 47 46 47 44 51 48 44 52 58 49 35 36 35 31 26 19 21 28 27 29 31 34 38 35 35 33 33 32 32 31 30 30 33 32 31 31 31 31 35 35 32 31 30 28 29
53 54 54 55 52 49 46 50 56 47 52 58 51 34 31 33 35 30 18 20 20 20 23 25 27 34 37 33 32 32 34 33 33 32 32 31 31 32 31 33 32 31 33 31 29 29 27 28 30
59 59 58 55 53 48 52 54 50 46 44 41 32 27 26 31 29 21 17 17 17 19 22 25 29 32 35 33 33 35 36 35 34 34 35 32 31 30 33 33 28 30 30 28 26 27 27 26 28
63 62 61 54 52 47 48 57 43 33 34 31 30 27 26 24 22 22 15 11 13 22 24 27 31 32 36 35 34 37 36 35 35 35 34 32 34 34 36 32 31 30 28 26 25 25 23 25 23
69 61 55 52 48 44 52 55 28 25 30 33 29 22 25 24 23 15 14 10 17 23 30 32 36 33 36 35 34 35 33 35 34 35 32 33 34 29 27 28 28 28 25 24 23 22 22 21 22
59 56 51 52 42 45 40 42 30 25 36 31 21 23 23 23 21 14 10 14 19 28 30 28 36 36 34 33 33 32 33 34 34 34 30 30 29 27 29 29 27 23 24 19 19 16 16 16 16
64 61 54 48 40 40 35 40 27 26 34 25 25 25 26 21 19 15 13 16 19 29 32 34 38 32 32 32 31 32 33 33 35 31 31 31 31 30 29 27 23 23 15 15 13 11 11 13 16
64 60 50 35 21 33 29 33 28 22 26 30 27 21 19 17 10 14 18 18 22 31 35 32 28 28 29 29 30 31 32 33 34 29 31 30 30 29 25 23 18 16 10 10 8 7 11 16 17
58 49 38 24 29 32 32 35 28 20 28 31 26 23 20 13 13 12 15 19 24 26 27 27 25 27 27 27 29 32 33 34 29 27 30 30 28 25 23 18 12 9 9 7 8 10 17 17 16
53 42 37 30 32 31 32 38 28 22 29 29 22 21 16 14 10 10 17 15 19 18 21 22 24 26 26 26 29 31 32 27 26 28 28 27 24 21 17 11 8 7 6 8 10 16 14 18 18
41 37 34 30 33 38 35 41 19 26 31 24 18 16 13 11 7 12 15 15 15 17 19 20 22 23 24 26 28 28 24 24 26 25 27 23 22 19 14 7 6 3 2 7 20 21 19 23 19
32 37 34 31 32 45 33 38 16 23 25 19 23 14 11 8 10 15 17 16 17 17 18 19 20 21 23 25 26 23 23 24 25 28 24 21 18 16 7 4 3 1 5 17 24 20 17 17 22
35 36 38 39 44 48 28 39 17 9 16 23 20 15 11 8 12 15 20 16 17 14 15 17 17 21 22 23 25 19 22 21 25 24 19 17 13 9 2 3 1 6 13 20 22 17 18 19 20
37 38 39 41 39 40 30 38 19 14 19 24 22 18 12 8 9 15 18 14 15 13 15 14 18 21 21 21 19 19 19 21 25 18 17 14 8 5 3 4 5 11 17 22 19 17 20 20 20
41 45 39 40 41 44 36 36 23 18 29 19 16 20 11 4 9 16 16 13 12 11 12 14 19 20 18 19 17 17 17 20 17 18 15 10 4 4 6 6 8 16 20 21 19 20 19 20 20
46 42 43 44 46 45 41 33 19 28 30 16 20 17 7 3 9 13 14 10 9 12 9 15 18 16 16 16 14 14 15 18 14 16 12 10 5 7 8 9 12 18 20 20 18 20 20 20 18
51 53 52 47 48 45 42 25 22 32 24 20 15 11 7 4 10 12 8 9 10 9 9 15 15 15 15 12 12 12 14 16 12 14 14 12 10 10 9 11 15 16 20 18 21 20 21 19 19
44 46 43 45 43 39 32 22 23 28 23 21 15 12 2 2 8 7 9 8 11 7 9 14 12 12 13 10 10 11 14 15 11 10 13 11 10 9 8 9 13 16 14 15 16 21 20 20 20

GFSSGP_500_spd_027.txt.gz
Wind_Speed
16 15 18 20 18 16 17 19 21 24 26 27 27 23 22 24 28 30 28 29 30 31 35 38 39 38 37 36 35 34 34 34 35 35 36 35 39 39 37 36 36 35 35 34 34 31 32 32 32
19 19 20 20 20 20 19 21 22 26 27 27 26 22 23 25 28 31 32 32 29 31 36 39 40 38 36 38 38 37 36 35 34 32 31 32 32 36 38 37 36 36 36 35 36 35 33 32 33
22 23 20 20 24 22 24 26 25 30 32 31 24 21 23 25 27 29 33 34 30 33 36 38 41 38 38 40 40 39 37 34 30 29 30 29 30 33 34 35 35 35 35 36 36 38 36 34 35
25 26 25 25 25 24 27 30 31 32 32 34 30 26 27 28 26 26 29 31 30 32 35 39 40 38 39 39 38 37 33 32 32 31 29 31 29 29 29 31 33 34 35 35 36 37 37 35 36
29 28 28 26 25 27 27 30 32 31 34 36 34 32 31 26 27 24 25 27 28 32 33 36 37 38 40 38 36 35 36 38 36 35 35 36 33 31 31 29 30 30 32 33 35 35 37 36 36
34 34 31 27 27 27 25 29 32 35 36 34 30 32 26 26 29 25 26 30 28 30 33 37 37 39 37 37 37 37 36 37 38 39 39 38 38 36 35 35 34 35 34 33 33 34 36 37 38
37 36 32 31 29 28 27 33 38 42 39 37 33 34 32 30 31 30 28 29 27 28 34 36 38 38 37 38 39 39 39 38 39 40 41 38 37 36 35 36 34 34 35 35 34 34 35 36 38
38 42 35 31 28 30 32 39 45 42 40 40 35 35 35 35 33 31 29 29 26 30 33 36 38 36 39 39 39 39 39 38 41 41 38 38 36 35 35 34 33 32 33 34 33 30 28 32 34
45 49 43 38 36 35 35 38 37 38 41 39 34 37 39 39 39 42 35 34 32 30 31 34 36 37 39 40 38 38 38 40 38 37 37 35 33 32 30 30 30 29 29 30 29 29 30 32 36
47 50 44 37 39 41 40 42 43 39 43 37 36 37 42 44 42 45 39 38 38 31 28 33 36 38 41 42 41 38 37 36 37 34 31 30 31 30 29 28 29 27 28 29 31 31 29 29 32
54 56 43 42 40 46 45 42 41 39 40 30 42 42 43 49 48 48 41 36 39 32 25 31 35 38 41 43 42 35 34 35 32 31 28 30 31 30 29 30 28 29 30 31 31 31 29 29 30
58 55 48 41 43 48 45 44 37 46 38 33 45 48 48 50 52 52 41 33 41 32 23 30 34 35 36 39 36 32 32 33 32 32 29 31 30 30 30 28 27 28 29 30 32 31 33 32 30
53 51 52 52 52 47 47 42 41 41 35 43 50 50 55 56 57 51 35 31 38 29 25 26 29 31 32 33 33 33 33 34 35 33 31 30 31 32 30 28 27 28 31 31 29 31 33 30 29
51 56 55 54 54 47 46 44 46 34 39 49 53 55 58 57 48 38 28 31 34 30 23 21 23 26 29 31 32 34 34 36 36 31 31 30 31 31 29 30 30 32 31 29 27 30 29 26 27
58 59 60 58 49 46 45 48 47 39 42 51 54 54 58 46 36 26 22 33 34 28 19 19 25 29 31 35 34 34 35 37 33 31 30 31 31 29 31 32 31 29 28 29 31 29 27 27 28
63 64 66 57 50 48 48 47 45 39 44 53 53 49 46 33 26 21 21 29 32 24 20 22 25 27 30 36 36 34 37 35 32 32 30 32 30 29 29 28 28 28 29 29 29 27 27 27 28
69 68 63 54 50 51 51 47 41 40 48 52 37 43 31 20 22 19 26 25 24 26 23 22 27 30 32 37 35 34 35 32 32 31 32 33 30 29 30 29 31 31 29 29 26 26 24 24 25
57 55 55 54 56 56 53 44 43 39 46 45 34 33 24 22 18 24 23 22 25 24 22 23 32 29 36 34 33 34 33 32 31 32 34 31 30 31 31 32 32 29 29 25 26 20 20 20 20
64 64 62 59 59 56 49 46 46 40 34 38 35 28 24 22 23 22 24 27 25 23 21 24 28 33 28 31 33 33 32 31 31 33 32 30 31 32 31 30 28 29 23 26 16 15 16 16 16
60 63 64 64 59 55 53 49 46 27 33 31 30 25 21 18 21 24 28 25 24 23 22 21 26 27 29 31 32 31 30 30 33 29 29 30 32 32 30 29 28 20 19 12 12 12 11 13 14
53 58 56 56 55 52 51 48 41 26 29 27 27 24 20 19 23 27 25 21 21 20 16 19 23 25 28 30 28 28 28 30 26 28 30 30 30 28 28 25 18 11 11 10 10 8 8 10 15
47 44 46 47 55 48 47 50 46 25 29 25 22 22 19 21 20 24 19 16 18 15 17 21 22 23 25 25 25 25 28 27 26 28 28 29 27 26 26 19 10 10 9 7 8 8 12 15 15
34 37 38 45 54 47 42 52 26 23 24 20 20 20 22 19 23 16 17 16 18 15 17 20 21 23 22 23 24 25 29 24 27 27 29 24 23 25 20 10 7 7 6 6 10 16 15 12 16
33 35 34 37 39 50 39 49 25 15 16 19 18 22 22 21 21 15 13 20 17 15 17 19 19 20 21 23 23 26 22 24 25 28 25 21 23 19 10 6 5 3 3 11 19 16 9 19 16
42 39 39 39 40 42 40 42 9 7 7 12 22 28 20 24 15 13 15 17 15 15 16 16 18 18 21 21 22 22 21 22 24 22 23 20 19 11 4 4 1 2 14 19 19 17 15 19 21
36 36 40 39 38 42 23 39 19 15 18 17 23 21 22 20 14 14 12 12 13 14 13 17 15 18 19 19 22 18 19 20 21 20 24 18 11 4 5 2 4 12 20 19 16 19 19 21 18
35 42 30 31 35 32 29 29 18 16 18 18 19 15 23 17 16 14 9 11 11 10 14 12 14 17 17 19 17 15 15 19 19 20 20 12 4 6 7 4 7 15 20 17 17 19 19 18 17
42 28 34 39 38 35 27 28 16 16 18 23 11 19 22 19 16 7 8 8 9 11 9 10 15 15 16 16 13 14 15 19 17 17 13 9 9 9 9 8 11 15 17 15 17 16 17 18 17
50 47 47 41 38 35 29 26 13 15 20 20 15 22 22 19 13 5 5 7 7 10 7 10 13 12 15 14 12 15 17 17 14 13 8 10 11 12 12 11 12 15 16 16 16 17 16 16 16
48 43 38 37 37 34 31 21 15 19 25 17 20 20 17 15 8 5 4 4 6 7 5 9 11 11 14 14 13 15 17 17 9 10 10 12 10 11 11 11 15 13 11 15 15 17 17 18 18

GFSSGP_500_spd_030.txt.gz
Wind_Speed
16 15 14 12 13 14 15 17 18 20 21 22 24 26 28 24 24 24 29 31 34 33 36 38 39 40 38 36 36 35 35 36 36 37 37 37 35 33 34 33 33 34 35 37 36 35 36 36 36
19 18 17 16 16 16 18 20 21 22 23 26 29 31 32 28 28 30 32 33 33 32 36 39 41 42 41 37 37 37 36 37 35 33 32 32 34 36 33 32 32 32 34 35 37 36 34 35 37
21 21 21 20 19 17 14 22 25 25 25 28 32 32 32 30 29 32 32 33 30 30 33 37 41 42 38 36 38 40 38 34 33 32 32 32 29 28 32 30 30 31 32 32 35 35 34 33 35
24 25 26 23 22 24 25 28 27 27 27 30 32 32 31 29 30 29 28 29 27 29 35 39 41 41 39 37 39 40 39 36 35 35 35 34 33 32 29 30 25 26 28 30 30 31 33 34 35
27 31 29 26 25 29 29 32 32 29 29 32 33 33 33 32 29 29 28 28 29 32 36 41 42 40 38 38 39 39 38 38 38 39 39 38 37 36 37 35 31 29 26 26 29 31 33 34 33
33 34 32 28 28 29 29 31 32 29 31 36 39 38 33 35 32 30 27 22 25 28 32 38 40 39 39 39 41 38 35 36 38 39 40 41 41 40 38 38 37 34 33 30 28 30 32 34 34
34 34 35 33 29 30 29 31 30 31 36 43 42 30 32 36 34 32 34 31 30 30 35 37 40 40 40 41 41 38 35 37 39 39 38 35 33 32 34 33 33 33 33 33 33 32 32 34 35
36 39 38 36 30 29 32 32 34 35 38 43 39 30 32 38 36 36 35 36 35 39 39 40 40 40 43 42 41 41 40 37 37 36 32 34 35 34 33 32 30 30 31 33 33 35 34 34 35
44 45 44 40 34 29 36 36 41 43 44 43 42 37 38 39 39 40 39 39 41 43 43 41 36 37 43 43 41 43 42 39 37 33 33 34 34 32 31 30 28 28 29 29 31 33 33 33 33
48 48 46 40 42 35 43 42 45 44 45 41 40 41 40 41 43 44 46 43 44 42 50 40 39 38 39 42 42 42 40 36 35 34 32 31 32 30 30 29 27 27 28 27 27 29 33 34 34
56 53 48 42 46 46 50 43 47 45 47 39 36 41 42 45 46 48 48 48 48 47 53 42 42 41 37 37 40 38 36 35 34 33 32 33 33 31 29 28 26 28 26 26 27 29 31 34 34
59 56 55 50 48 53 55 50 52 42 44 38 40 41 42 44 46 50 52 52 52 53 43 39 38 40 34 32 30 33 35 36 35 33 35 36 33 30 29 29 27 27 27 26 25 27 29 33 35
66 65 55 51 48 53 54 52 47 47 44 42 43 41 45 45 49 51 53 54 51 42 37 37 39 39 32 25 28 33 36 39 37 36 36 32 30 29 30 28 26 27 27 29 31 30 28 28 29
58 58 55 55 49 50 58 51 49 50 41 41 43 42 42 48 52 51 48 47 41 33 35 38 41 37 29 27 29 33 36 40 38 37 34 31 29 30 31 26 26 25 25 26 29 29 27 26 27
63 61 65 55 53 49 48 51 48 49 43 44 39 43 46 47 50 41 35 27 24 28 30 38 39 35 29 30 32 34 37 39 38 36 33 31 29 31 29 26 26 26 24 25 26 26 26 28 27
61 62 65 60 56 49 52 50 43 45 42 42 40 41 47 44 37 27 17 15 23 21 28 36 36 31 29 34 33 37 35 37 38 35 33 31 30 30 27 27 28 27 27 29 28 27 27 26 25
61 56 56 60 63 61 55 48 48 50 39 42 41 44 42 36 26 22 18 21 20 23 27 29 32 32 31 31 34 36 34 37 36 35 33 31 32 29 28 30 29 27 29 25 25 24 23 22 24
53 61 57 61 50 64 56 47 50 52 46 41 43 44 40 26 22 22 21 21 22 26 26 28 32 27 32 31 38 35 35 38 36 34 32 32 30 29 30 30 30 29 26 26 25 25 24 26 26
59 60 57 54 56 64 53 47 49 53 45 40 45 45 35 26 22 19 23 25 25 27 28 32 32 26 31 33 35 35 36 37 34 32 30 29 31 30 30 29 26 26 25 24 23 25 23 21 22
55 55 56 57 57 57 57 60 57 54 48 42 46 41 30 25 20 20 21 24 28 25 28 31 27 27 29 32 33 33 34 33 30 31 29 31 30 31 30 26 26 25 20 18 14 14 16 19 19
46 47 49 51 51 57 59 60 49 51 50 41 43 32 28 24 20 21 20 25 23 25 28 25 25 27 27 29 29 29 30 29 31 29 30 30 31 32 26 24 24 16 12 11 12 13 13 14 15
50 48 42 40 44 51 46 55 46 43 38 37 31 31 26 22 20 22 24 23 21 26 25 24 24 25 25 26 26 27 27 29 28 28 29 31 30 25 23 21 17 11 10 9 8 9 10 9 12
49 46 41 42 46 49 49 52 36 37 34 20 28 28 25 19 20 22 24 18 23 26 25 23 24 23 23 22 24 26 24 24 25 27 28 24 24 21 17 13 10 9 8 6 6 7 12 13 13
47 48 44 44 46 52 42 49 42 27 10 23 26 26 21 21 20 24 18 21 24 28 25 20 21 20 21 21 23 21 23 22 23 25 23 25 21 16 11 9 8 7 7 7 11 14 10 7 12
55 53 51 53 53 51 39 44 37 14 23 23 24 20 19 22 18 20 18 21 25 24 18 19 17 18 18 21 18 21 19 18 21 20 23 23 15 10 9 8 4 3 6 15 16 10 13 10 12
54 54 53 52 47 43 38 39 22 20 18 19 12 15 21 18 20 20 20 21 21 16 16 15 16 15 18 15 18 16 15 16 20 18 22 18 11 8 7 4 4 11 17 17 14 12 13 15 17
57 54 44 47 43 35 28 33 16 27 23 15 12 15 11 16 20 19 19 22 17 14 12 14 12 15 13 14 13 12 14 16 18 16 16 10 8 7 6 5 11 15 15 14 13 14 15 12 9
53 43 44 45 47 37 32 28 21 27 19 12 12 11 16 18 19 17 19 19 12 11 12 10 11 11 11 13 12 12 15 17 15 13 10 9 8 8 6 9 13 14 12 14 14 15 12 10 9
58 52 49 47 39 31 24 20 15 24 14 15 10 15 18 17 16 16 20 15 11 10 10 8 10 9 11 14 14 12 16 17 10 10 8 8 9 9 10 11 13 13 12 14 13 13 13 10 12
56 51 50 45 39 36 23 22 15 21 11 16 15 18 15 14 17 20 20 11 10 8 7 6 8 7 10 14 9 12 15 9 11 7 9 9 9 9 8 13 12 12 12 11 13 13 12 11 10

GFSSGP_500_spd_033.txt.gz
Wind_Speed
14 14 14 14 13 12 12 9 10 15 14 17 19 22 21 23 21 18 31 33 39 38 36 38 39 40 41 39 37 34 33 34 37 38 38 34 32 29 30 31 32 30 31 32 35 36 36 36 37
18 18 18 16 13 12 12 11 20 13 16 21 24 26 28 23 27 29 37 35 36 34 31 34 38 39 40 36 36 37 37 39 40 38 37 35 35 34 33 31 30 30 29 30 31 35 35 36 36
20 20 19 16 16 9 14 17 10 18 25 24 25 30 27 28 33 30 31 32 33 30 30 34 40 41 42 40 38 37 38 41 39 36 35 34 34 35 34 32 31 28 29 29 30 32 32 35 35
19 21 22 19 15 14 22 12 17 32 20 26 25 25 32 37 34 32 31 32 34 29 31 35 39 42 42 38 35 36 39 41 36 33 35 35 35 36 38 37 36 34 29 27 27 27 30 31 32
26 25 24 24 22 18 24 24 23 25 20 25 25 25 24 45 39 31 32 30 32 30 31 35 39 41 41 37 35 37 41 37 33 34 38 39 39 38 38 37 37 38 37 34 30 29 26 31 30
30 31 29 27 20 18 25 24 29 24 21 20 32 30 27 43 35 32 32 32 33 33 32 36 40 43 43 43 39 39 42 35 34 35 38 39 38 36 34 32 31 29 30 32 31 30 31 29 29
34 35 35 30 21 16 18 23 23 22 19 22 32 31 26 34 43 36 38 38 34 36 35 39 45 45 46 45 41 41 41 34 35 37 37 36 34 33 33 33 32 31 30 31 31 31 30 32 31
38 39 41 35 31 30 22 31 30 24 21 29 33 38 30 24 45 40 41 40 40 38 39 41 46 49 49 45 42 41 38 34 37 37 39 37 33 33 33 34 32 32 31 30 30 30 31 31 35
40 45 46 38 35 28 23 30 26 39 42 38 39 41 46 47 45 38 41 43 42 45 44 43 48 53 54 47 42 44 39 37 37 38 36 36 35 34 35 32 32 32 32 29 28 28 30 32 33
49 48 47 40 36 32 23 27 22 36 35 38 41 37 35 25 44 42 42 43 45 46 53 50 48 53 53 46 41 43 41 36 35 37 36 36 36 35 37 36 34 32 31 29 29 30 30 29 33
45 49 46 44 36 39 40 36 40 40 42 39 39 36 45 45 47 45 44 44 42 46 50 55 49 49 48 43 40 43 39 35 34 37 36 36 36 36 35 32 32 31 31 30 29 29 29 28 29
55 54 50 48 49 48 43 41 43 50 52 49 53 47 47 44 47 47 45 42 43 45 51 61 49 41 42 40 40 41 35 35 34 37 38 37 36 33 31 33 32 31 29 28 28 28 29 27 29
60 57 55 55 57 57 54 55 59 59 51 54 55 51 53 50 44 43 46 46 45 46 42 47 42 36 37 38 42 37 37 36 37 41 40 37 36 32 32 31 32 29 26 28 29 29 29 31 30
61 60 63 63 60 57 59 59 58 57 48 53 56 50 52 49 42 48 50 45 40 39 39 32 31 30 33 36 41 35 35 38 38 44 38 35 36 34 34 33 31 27 26 27 26 26 24 25 28
55 61 62 61 55 53 52 55 53 51 46 49 52 49 50 42 42 48 43 39 32 27 21 18 24 28 32 37 41 37 36 41 43 40 38 37 36 37 35 35 31 28 28 29 28 28 28 26 25
61 61 60 50 51 52 47 56 52 46 44 43 49 48 48 41 45 41 41 30 23 21 17 18 22 25 31 36 36 36 46 41 42 41 40 37 38 37 38 34 31 30 31 30 29 30 28 26 25
59 57 49 51 48 47 47 52 46 42 47 47 50 54 47 40 45 37 38 24 22 19 19 23 23 27 32 35 35 34 37 40 43 42 41 38 37 37 34 33 32 32 31 29 28 26 25 24 23
48 52 57 56 49 45 46 51 42 44 43 44 45 55 45 42 42 37 33 22 24 19 23 25 25 29 30 33 32 34 38 41 42 41 40 38 38 36 34 34 32 30 28 25 25 26 25 23 26
53 60 58 51 45 40 44 47 49 51 46 45 46 49 40 39 41 37 28 23 23 21 25 25 27 30 33 33 34 36 39 40 40 38 37 37 38 36 36 33 32 28 25 25 24 23 22 24 25
58 59 53 49 49 44 46 51 41 47 45 45 45 44 39 39 40 34 27 24 19 22 22 25 28 32 35 36 37 38 37 36 36 36 36 37 36 35 34 33 28 25 23 23 21 20 19 18 20
57 55 49 45 44 46 45 51 49 47 45 45 40 40 44 37 33 28 26 23 19 22 22 24 28 33 36 35 36 35 32 33 33 35 35 31 34 34 30 26 25 22 20 17 16 15 16 17 18
54 51 47 46 49 52 38 48 41 44 43 40 32 37 29 30 27 27 26 22 22 22 21 25 29 35 35 34 31 29 28 31 30 32 31 32 30 28 27 22 20 17 13 13 13 12 13 13 13
51 45 48 48 52 44 46 50 36 40 41 30 34 24 29 29 25 27 26 21 21 20 24 27 32 36 30 30 27 25 28 27 30 28 28 29 26 24 20 17 13 11 11 10 9 9 8 8 8
54 50 48 48 45 50 41 47 42 34 35 36 21 25 28 23 25 24 24 20 20 20 23 31 35 28 27 26 21 24 25 26 23 23 26 23 21 16 13 12 11 9 8 7 6 5 6 6 8
62 57 49 49 52 53 41 42 41 31 36 23 28 26 23 21 19 25 20 19 17 20 27 31 29 24 23 19 22 22 23 20 20 23 20 19 16 13 11 11 8 6 5 6 9 7 4 3 5
67 64 61 57 53 45 41 46 36 32 23 28 28 21 21 19 23 21 18 16 17 23 27 29 22 21 17 19 20 20 17 18 19 21 17 14 13 12 10 5 3 4 9 12 8 6 7 8 9
70 64 55 43 32 33 29 29 32 16 20 26 21 13 18 19 22 17 15 13 19 23 26 23 20 15 16 16 16 14 15 18 19 16 12 11 11 9 5 5 7 9 10 7 6 5 7 10 12
68 59 53 54 49 38 26 25 22 16 27 21 15 16 17 18 15 15 13 16 19 22 22 19 17 13 13 14 15 14 15 18 13 9 9 8 9 8 6 8 10 9 7 6 6 8 5 2 8
70 54 59 47 42 34 29 24 23 28 26 20 17 14 20 20 14 13 15 16 19 19 20 18 13 12 12 14 16 11 14 7 6 6 8 8 7 6 8 7 8 8 9 9 8 5 3 3 7
64 56 53 54 47 33 21 21 18 24 18 21 17 18 19 13 11 11 14 18 18 19 17 14 10 10 10 13 9 10 3 5 6 7 9 7 5 6 10 9 8 9 8 6 5 4 4 4 7

GFSSGP_500_spd_036.txt.gz
Wind_Speed
16 13 12 9 10 8 10 5 11 21 23 27 20 21 20 20 21 24 30 33 34 33 35 36 36 36 39 38 38 36 34 33 32 34 36 36 34 33 30 28 30 30 28 28 31 31 32 36 37
19 20 16 18 22 17 5 8 20 13 23 16 18 26 21 13 28 28 35 38 37 35 37 34 35 36 40 39 37 35 32 31 33 36 35 31 34 35 35 34 32 29 26 27 25 27 29 32 35
22 23 19 22 17 6 6 17 24 23 19 20 27 31 28 25 32 30 33 35 35 33 34 34 35 36 39 40 38 34 31 32 36 34 33 33 36 36 36 37 37 35 33 32 28 25 24 29 34
23 25 22 22 19 12 9 16 27 8 7 24 32 29 22 33 36 35 32 33 37 35 34 37 37 39 40 40 38 36 34 34 37 32 34 38 37 38 37 37 37 37 37 32 32 31 26 25 28
24 25 26 25 19 13 12 14 21 12 14 12 21 28 34 33 35 37 34 32 38 44 34 36 37 38 40 44 40 39 36 35 35 32 36 39 38 39 39 38 36 33 32 32 30 30 32 28 26
28 28 31 28 22 15 13 28 16 24 28 18 17 19 17 31 41 40 32 32 45 47 43 34 38 39 43 43 42 39 37 35 35 32 36 39 39 39 37 36 33 31 30 30 29 29 28 29 29
35 38 37 32 27 15 17 19 17 14 15 18 20 20 26 39 42 40 36 47 45 43 48 39 39 41 42 47 43 41 38 36 36 36 38 39 40 37 34 33 34 31 30 28 28 29 28 29 28
45 40 43 40 34 29 22 19 19 14 19 30 33 32 40 38 43 49 47 42 50 53 55 51 42 43 43 46 45 47 40 36 37 38 39 40 41 37 33 33 34 35 32 32 31 32 30 28 27
39 47 52 46 37 33 26 25 20 18 34 30 38 38 38 40 36 42 39 40 40 43 49 58 56 52 46 47 47 45 38 37 39 39 38 38 38 34 35 34 36 34 34 31 31 31 29 27 27
50 48 45 40 39 37 30 27 34 22 25 28 23 25 32 32 40 32 36 36 42 43 33 50 58 56 52 48 47 41 37 37 39 37 39 38 39 37 38 37 34 29 28 28 30 33 30 30 29
48 50 42 40 42 42 41 32 28 29 34 31 31 30 31 46 47 47 45 45 46 41 37 37 52 60 56 44 40 35 38 35 38 35 37 37 41 40 39 37 31 28 29 31 32 30 29 28 27
52 49 44 43 44 45 47 41 38 43 41 38 35 47 53 55 58 59 50 50 50 46 43 43 51 57 56 39 32 28 33 33 33 36 36 41 41 41 37 37 37 34 32 31 31 27 27 27 27
57 50 49 48 48 48 49 51 52 50 48 50 51 56 58 55 59 59 52 43 48 47 44 46 51 47 35 35 28 30 31 33 34 38 34 38 38 41 39 36 35 35 34 31 27 27 27 25 27
59 59 57 58 56 53 56 56 55 54 49 55 54 58 47 46 54 54 47 43 47 45 42 44 40 23 19 21 27 32 32 36 38 40 44 43 43 44 42 39 37 38 37 35 31 28 29 28 26
71 68 66 62 58 58 49 57 59 51 47 48 47 44 47 46 48 46 39 45 43 42 39 32 28 21 19 19 26 31 32 36 38 43 44 39 42 43 42 40 40 37 34 33 31 31 31 30 30
63 66 68 57 51 42 43 54 44 41 43 42 42 45 41 39 39 51 38 49 43 39 34 27 27 21 21 20 24 30 34 36 39 42 41 42 43 42 41 40 41 39 36 34 33 31 31 31 31
58 60 56 47 43 46 46 50 40 41 40 40 39 41 43 42 45 53 43 46 44 35 32 29 26 24 22 23 25 31 35 33 37 41 42 43 44 43 41 42 43 39 37 35 32 29 29 28 27
51 46 40 48 42 45 44 47 38 40 37 38 39 43 37 39 44 48 42 43 36 33 32 28 27 25 24 24 27 30 34 34 38 42 45 43 43 42 42 43 41 39 35 35 32 27 27 26 27
50 48 53 51 45 46 47 47 39 36 38 36 40 46 42 40 38 38 33 39 32 34 28 26 25 25 25 24 30 35 36 38 41 42 42 42 42 43 42 41 41 40 38 33 30 28 28 26 26
55 59 59 48 46 45 37 44 40 41 39 36 40 44 37 36 35 38 32 38 32 33 24 25 25 23 24 28 33 37 38 38 39 39 39 39 41 41 39 40 39 34 31 29 29 26 23 22 23
59 58 49 47 45 45 43 47 44 37 41 43 44 33 38 38 36 30 32 35 27 25 26 26 23 23 26 29 35 37 36 38 35 34 38 35 38 38 37 37 35 31 28 26 23 20 18 18 17
60 51 53 48 49 52 42 50 40 36 38 38 35 36 37 37 28 30 29 32 24 23 24 22 22 24 27 32 38 35 34 34 31 34 35 36 29 32 32 32 29 25 23 19 16 15 15 15 14
53 47 48 47 50 51 47 45 24 29 37 34 41 39 37 28 24 27 32 24 24 21 21 22 22 26 30 34 33 31 31 29 31 32 31 30 33 30 27 25 23 19 17 14 13 12 10 8 8
58 52 50 48 47 45 44 43 30 31 31 36 36 30 27 26 25 26 29 17 20 19 20 20 22 26 31 30 29 26 28 29 29 27 27 29 28 26 22 19 18 15 13 11 7 4 3 4 5
65 59 56 53 57 54 35 39 40 29 30 39 37 35 32 27 26 32 14 19 19 19 17 19 22 27 28 27 23 25 26 27 26 24 26 26 23 21 18 15 12 10 7 3 5 3 1 2 3
67 65 63 63 55 53 44 47 38 29 30 28 29 27 22 23 24 15 18 18 18 16 16 19 23 26 24 21 22 22 24 22 22 24 26 21 17 16 11 7 4 5 8 5 3 2 1 2 3
63 63 53 54 49 39 33 29 40 26 21 24 23 19 16 21 14 20 18 18 17 14 17 19 24 23 23 18 19 21 23 22 21 24 16 15 12 8 3 3 2 4 4 5 5 5 4 4 4
64 54 58 53 55 46 36 25 19 25 27 31 24 12 15 16 13 19 17 17 14 15 16 20 20 22 18 17 18 20 22 18 20 13 11 9 6 3 2 2 2 1 2 5 6 6 0 2 3
65 60 55 56 49 51 46 27 12 29 23 24 17 15 16 14 17 17 18 15 14 14 16 18 21 21 15 16 16 20 16 15 11 7 7 6 5 0 4 2 1 1 4 7 6 5 7 3 2
46 49 54 62 56 49 34 26 28 35 31 32 23 18 16 18 17 17 15 14 12 13 16 18 19 14 14 14 15 16 14 10 6 5 5 5 4 2 3 3 4 6 6 4 5 5 5 3 3

GFSSGP_500_spd_042.txt.gz
Wind_Speed
21 22 21 22 21 18 16 13 12 16 25 25 26 31 29 28 26 18 21 21 26 28 32 31 31 33 33 28 28 28 27 27 25 23 21 18 17 18 20 23 23 24 25 26 25 26 27 28 26
25 25 25 23 22 19 19 21 22 27 28 29 31 34 35 30 24 25 26 27 25 28 31 32 33 33 34 31 29 31 29 27 25 25 23 21 17 17 19 21 21 24 25 26 25 26 28 28 29
26 27 26 26 22 20 20 24 25 25 29 31 22 34 27 29 21 28 28 20 27 28 30 30 32 35 35 33 31 30 30 28 28 28 24 22 19 20 22 24 25 27 27 25 24 26 26 26 27
27 29 29 28 23 20 22 25 25 28 17 23 23 11 21 17 26 25 30 28 29 32 34 33 34 36 38 36 35 33 33 30 30 27 23 22 21 23 26 27 28 27 24 22 20 21 23 24 24
30 32 32 30 24 22 26 29 28 29 22 15 14 13 20 22 27 32 33 32 34 33 31 33 32 37 37 37 36 36 37 35 33 25 21 22 23 24 28 30 27 23 23 22 20 20 21 20 22
36 37 35 31 26 23 26 33 25 24 20 18 22 19 21 24 30 30 34 34 36 30 32 34 38 37 36 40 43 43 43 41 36 27 23 24 26 27 29 27 26 26 27 25 21 20 21 21 21
36 38 36 34 32 27 25 29 28 19 13 15 19 22 22 29 31 32 37 38 37 33 34 37 43 42 31 35 42 43 44 42 38 30 25 25 27 28 29 25 27 31 32 28 26 24 22 21 22
42 49 46 42 34 27 30 37 35 22 18 17 20 28 28 31 31 39 41 42 39 38 40 43 48 51 42 36 39 41 43 43 40 33 29 26 27 28 27 25 30 32 34 30 26 26 25 24 23
47 53 47 45 39 34 40 34 37 38 30 24 25 27 26 28 34 37 38 39 43 44 46 48 53 55 41 38 38 40 43 41 39 34 28 26 26 29 25 27 35 32 33 29 27 28 28 27 26
53 55 49 44 46 43 33 48 29 38 36 36 32 32 24 29 36 38 40 38 41 43 48 54 56 53 40 39 38 40 40 37 37 33 26 26 26 28 28 28 35 36 34 31 31 28 29 31 28
54 58 49 49 47 47 47 47 43 38 41 38 38 38 36 38 31 38 37 42 43 45 55 56 55 47 39 36 37 41 38 35 35 31 25 25 26 27 29 31 36 36 35 34 34 29 30 30 29
58 57 55 52 51 48 50 50 45 42 39 35 34 32 40 39 37 42 46 47 48 56 56 56 50 37 34 35 39 40 34 34 33 30 25 24 27 26 32 34 39 39 37 38 34 31 29 29 26
66 64 60 62 60 58 53 52 55 44 39 34 32 30 35 40 46 49 49 48 54 60 60 54 41 35 33 34 38 37 35 32 33 28 24 24 25 27 33 35 40 37 41 40 36 34 31 29 27
67 68 62 62 61 58 61 56 48 43 33 40 40 36 38 42 47 50 51 51 60 56 53 51 37 35 34 34 36 36 34 33 31 24 23 25 25 30 34 35 40 41 42 41 39 36 34 30 29
71 71 67 68 69 66 57 59 50 35 41 44 46 45 41 41 42 45 46 55 52 46 42 42 34 36 32 33 35 34 36 33 30 24 24 24 27 31 35 38 43 43 43 43 40 36 31 30 30
73 70 69 62 64 60 52 52 38 41 43 44 47 46 34 29 27 32 42 45 42 37 37 35 33 35 32 35 35 34 34 33 28 23 24 25 26 33 37 43 44 44 43 42 40 39 36 34 31
79 71 65 58 56 56 58 47 44 43 41 41 43 39 33 31 29 29 32 36 31 34 35 32 35 38 31 35 33 33 32 33 26 24 26 27 31 32 39 40 41 42 42 43 41 39 37 34 33
65 66 58 57 55 56 60 58 55 44 39 40 36 29 30 26 28 30 29 28 30 33 34 33 36 32 34 35 33 31 31 32 27 26 29 31 33 35 39 40 40 41 43 42 38 36 35 33 29
55 58 56 54 53 50 50 48 43 35 38 37 29 27 29 25 27 28 26 25 24 27 32 34 33 28 35 30 31 30 31 30 27 30 30 33 37 37 38 38 40 41 39 39 38 33 30 27 24
57 56 53 50 46 40 39 43 42 37 38 33 25 29 26 27 28 26 20 19 22 27 32 35 32 29 30 26 27 30 30 26 28 32 34 36 36 35 37 38 39 36 37 35 32 29 26 24 21
56 56 52 51 48 43 45 51 42 34 35 31 28 25 26 31 28 17 21 24 23 31 36 28 25 29 24 25 26 27 24 25 30 34 36 35 34 35 35 36 36 38 34 29 25 21 21 18 18
62 56 53 52 50 48 44 55 44 31 32 30 28 25 30 28 18 18 21 21 27 31 33 26 28 26 24 24 24 23 23 27 30 32 32 33 33 31 30 32 32 27 26 22 20 19 17 16 15
57 59 58 56 53 51 51 54 32 31 31 26 22 29 28 19 21 21 24 28 30 31 25 23 28 23 24 24 21 21 24 27 28 28 28 30 28 26 30 26 25 25 23 19 16 14 13 13 12
61 62 61 60 56 61 49 48 23 28 23 19 24 24 21 19 21 25 28 27 29 23 24 26 25 21 23 20 20 22 24 25 25 26 28 30 26 27 21 21 19 17 16 11 9 6 4 6 7
63 62 62 62 65 54 46 48 23 24 16 22 25 21 19 17 19 25 24 26 20 18 22 19 19 21 19 20 20 22 23 22 24 25 29 26 24 19 16 13 9 12 11 7 3 3 6 5 4
63 62 62 64 62 55 54 50 34 29 21 23 26 18 20 20 23 21 16 17 15 17 22 17 19 18 17 20 19 21 21 22 23 27 23 20 17 15 13 9 8 10 10 8 6 5 5 5 2
59 65 61 62 61 61 55 49 40 33 22 28 17 22 20 21 22 15 16 17 19 19 20 18 16 15 18 18 19 20 18 21 23 22 18 15 15 13 10 7 6 7 8 5 6 6 7 4 4
58 57 59 62 61 62 56 50 41 32 29 27 21 20 19 11 10 13 17 18 17 17 19 15 13 17 17 17 17 16 18 19 21 17 14 14 13 12 8 5 6 6 3 3 6 8 6 7 5
58 57 59 58 62 63 57 52 42 29 34 29 27 13 9 8 8 12 12 13 16 17 17 13 15 16 16 15 15 16 16 19 18 12 10 12 12 10 8 6 5 3 2 3 6 5 7 3 4
54 59 62 62 62 60 59 52 45 32 40 40 28 14 16 8 8 14 14 15 15 18 14 14 15 15 14 14 14 15 17 17 13 9 9 13 13 9 6 5 2 1 3 5 5 5 8 4 6

GFSSGP_500_spd_045.txt.gz
Wind_Speed
22 23 23 24 24 24 24 21 17 17 15 16 18 23 25 24 19 20 23 22 25 17 22 26 25 24 25 27 30 28 27 28 26 24 23 24 23 22 21 22 22 23 24 24 24 25 24 24 27
25 24 24 26 26 27 26 24 20 17 17 20 25 29 32 31 29 26 27 26 24 25 24 25 26 26 26 28 29 29 24 27 28 23 25 22 21 20 22 22 24 25 25 26 26 26 26 25 26
27 27 27 28 28 27 29 25 25 22 24 27 29 35 35 27 32 33 33 29 26 24 24 26 26 28 30 32 28 30 29 26 26 26 25 23 19 19 20 22 24 27 26 22 22 22 24 26 25
31 31 31 29 25 28 27 28 31 30 30 31 28 27 26 27 30 30 35 31 24 25 26 28 29 31 33 33 31 33 34 33 25 28 28 22 21 20 21 23 24 24 20 19 20 20 20 23 25
33 32 32 32 32 31 32 35 34 31 34 29 32 32 19 12 23 25 31 32 24 27 25 25 29 32 35 36 37 37 35 36 35 32 31 25 24 22 22 23 25 21 19 20 21 18 19 22 23
37 37 35 33 31 32 32 36 33 37 34 31 35 38 27 22 24 30 33 32 25 29 25 25 30 34 38 37 37 35 36 36 36 36 35 31 26 26 24 25 24 22 24 24 25 23 22 20 20
39 39 35 36 34 32 35 38 39 36 34 35 33 34 28 27 30 35 33 29 33 30 25 26 33 39 42 39 35 34 35 34 37 37 36 34 30 27 28 25 23 24 26 27 26 23 22 20 21
43 42 40 40 37 35 40 42 42 41 41 41 39 33 33 32 32 35 34 35 35 29 29 37 42 41 44 41 33 32 30 31 36 37 36 37 32 29 28 26 25 25 29 30 28 24 24 23 23
48 51 47 44 41 38 46 47 45 47 45 43 43 40 32 31 33 33 35 36 37 36 33 39 46 44 48 40 34 30 28 30 34 36 37 37 34 31 28 28 25 25 29 31 30 27 26 26 27
54 52 45 41 40 41 51 49 45 40 38 37 39 41 41 38 35 39 38 41 41 41 37 45 48 49 51 46 36 30 31 29 32 36 37 36 34 31 29 29 25 28 29 33 32 31 27 27 29
59 59 45 45 42 42 44 48 48 44 43 38 39 41 41 39 34 42 44 43 41 40 45 50 51 53 53 51 38 34 35 31 34 36 36 35 32 29 29 30 26 30 31 35 34 34 30 29 30
59 57 51 45 45 46 47 48 55 53 52 44 44 38 41 39 37 38 37 39 49 50 51 53 53 50 58 51 37 37 36 34 34 36 35 33 30 28 29 27 29 32 33 34 38 36 32 30 32
58 56 53 49 48 49 53 57 56 54 48 47 47 51 42 38 31 33 37 41 45 49 51 52 55 56 57 42 39 37 36 35 36 35 34 32 29 29 31 27 30 33 35 37 42 37 34 33 32
62 61 60 58 57 58 60 56 56 56 49 54 53 46 37 37 35 37 37 43 45 48 50 54 56 56 49 36 37 35 36 35 36 33 34 32 28 28 30 32 32 35 38 41 43 39 35 36 33
65 67 66 63 59 62 60 66 62 53 50 49 49 46 36 37 42 45 41 47 49 48 49 54 51 48 35 33 32 35 38 36 36 33 33 30 26 29 30 33 35 40 40 43 43 40 37 36 34
75 76 75 69 70 69 61 65 60 51 54 49 46 44 44 44 46 44 40 43 39 42 46 45 45 36 32 34 37 36 36 36 34 32 33 28 28 27 31 36 38 40 42 43 42 40 39 38 32
77 71 70 69 66 69 69 59 53 49 52 47 44 42 43 43 41 39 39 40 42 41 39 34 36 35 32 36 36 36 37 35 34 32 31 29 28 30 34 37 42 41 42 40 39 40 38 34 33
73 69 70 71 71 70 69 59 56 49 47 46 47 48 43 39 31 35 37 39 41 37 31 32 36 33 33 36 31 35 37 33 34 31 30 30 30 33 35 40 39 38 38 38 39 36 37 34 29
63 66 68 67 66 60 66 63 59 60 54 51 49 48 41 34 33 34 33 37 36 28 28 30 29 31 34 36 34 37 36 34 31 31 30 30 33 34 36 35 36 36 36 37 38 39 32 32 25
61 61 60 59 57 55 52 56 55 53 49 44 39 37 33 27 33 29 31 33 29 25 27 29 28 33 35 29 33 36 33 31 30 28 29 31 33 34 35 35 35 34 35 37 32 29 28 25 23
60 61 59 57 54 52 52 56 51 43 40 36 31 30 28 30 29 29 32 31 26 25 31 26 28 33 29 31 32 31 27 28 27 30 29 30 30 31 34 33 31 34 30 28 28 29 24 19 18
64 59 56 57 55 55 49 57 50 36 36 34 31 25 25 31 29 28 28 20 24 28 26 26 27 29 31 25 27 24 24 26 28 28 27 27 29 31 33 28 33 30 28 26 25 23 20 18 17
59 60 60 59 56 55 50 58 39 36 35 29 26 23 28 28 32 28 21 22 26 28 28 26 26 28 31 24 23 22 25 26 27 26 26 27 29 32 28 27 24 19 20 21 17 13 13 12 14
61 63 60 60 60 61 52 53 38 31 29 30 27 32 32 33 28 21 20 21 24 28 24 24 25 27 28 22 20 24 23 25 23 25 25 26 30 28 22 21 16 14 17 14 10 6 6 7 7
62 64 61 60 62 57 53 55 29 28 33 25 31 34 31 22 20 19 20 20 23 24 23 25 25 20 19 17 21 23 22 21 22 21 23 27 25 20 19 16 13 14 15 12 9 7 7 6 6
61 61 60 62 60 55 52 51 31 31 29 26 32 28 22 19 20 19 21 25 24 24 24 25 19 17 15 19 22 21 21 19 18 20 23 23 19 18 15 12 10 10 11 9 8 7 8 9 7
57 61 57 57 58 55 51 45 40 38 33 27 22 22 17 21 21 18 22 25 24 27 24 21 16 15 18 20 20 20 18 16 17 19 20 17 16 15 12 9 8 11 10 7 7 9 9 6 8
54 54 55 59 57 58 52 47 41 39 32 25 22 25 24 20 16 17 18 22 25 22 17 16 14 17 18 19 19 19 15 16 16 19 15 12 13 12 10 9 8 10 7 5 9 8 8 5 4
51 54 58 59 58 58 54 49 43 41 34 30 36 28 22 20 15 15 17 20 13 12 17 15 15 18 17 17 17 17 14 15 18 16 12 12 14 13 10 8 8 6 5 6 10 8 8 7 7
42 53 58 61 60 60 58 52 50 45 30 35 29 27 23 20 15 16 17 11 9 13 13 13 17 16 16 17 17 15 14 16 17 15 12 14 17 15 10 6 4 4 6 8 9 10 12 7 8

GFSSGP_500_spd_048.txt.gz
Wind_Speed
23 23 24 26 28 26 29 26 22 21 19 18 19 18 19 25 25 22 21 20 13 13 19 18 17 19 23 27 28 26 27 27 27 31 31 31 30 29 26 25 25 26 26 27 27 26 27 28 28
25 26 27 28 28 29 30 25 24 23 22 20 19 16 20 26 27 29 30 27 25 19 22 22 19 20 22 26 29 28 27 27 27 27 28 28 26 26 25 24 24 25 27 27 27 26 24 26 28
28 29 30 30 30 30 30 27 27 23 22 20 20 22 24 26 30 33 30 30 28 24 23 25 23 19 25 29 33 31 29 27 26 25 26 26 24 22 23 23 23 24 25 26 23 23 24 23 23
31 32 31 33 30 31 31 29 28 25 27 25 23 26 24 24 26 34 37 31 32 28 27 25 24 22 25 34 37 34 31 28 28 28 28 28 26 21 22 24 23 22 24 24 23 23 22 23 25
33 34 35 33 32 35 34 33 31 33 33 29 28 29 25 26 30 29 27 29 24 22 28 25 24 25 28 34 37 38 32 29 29 30 31 32 31 29 25 25 26 24 25 25 24 25 23 20 23
37 36 36 33 33 37 36 36 35 37 35 34 31 33 28 30 33 35 27 25 24 27 24 20 23 25 31 34 34 35 34 30 30 31 32 32 33 33 32 30 28 25 27 27 26 24 22 21 19
38 39 36 35 36 39 37 44 44 41 38 39 34 34 35 30 32 32 33 32 31 26 23 21 26 27 32 37 35 29 32 30 29 31 33 33 33 35 35 33 31 27 28 29 29 24 21 21 22
41 41 39 39 39 39 41 42 42 39 39 37 37 38 39 34 35 36 34 34 31 31 30 28 31 30 35 38 40 28 30 29 30 31 33 32 34 35 36 35 33 30 29 28 29 27 22 20 22
46 46 43 41 41 39 41 41 41 41 42 41 40 42 42 44 44 45 41 41 38 37 37 37 29 33 39 40 42 34 31 28 30 32 34 33 33 35 35 35 33 30 31 29 29 26 23 25 23
52 51 43 42 41 41 43 47 47 49 47 47 48 47 47 42 38 38 39 40 42 37 38 35 37 42 41 46 46 44 48 33 29 34 34 35 33 33 34 34 34 31 32 29 29 28 26 26 26
56 58 46 43 44 45 49 53 51 52 52 49 48 43 39 36 38 41 38 44 43 37 37 41 44 46 46 49 47 48 51 36 33 35 35 35 33 31 33 33 32 33 32 30 30 31 30 30 30
58 57 51 46 47 49 51 52 55 54 52 49 47 44 42 43 42 37 43 43 38 35 37 40 45 48 48 49 49 51 45 37 38 37 35 35 33 31 33 32 33 32 32 31 33 33 34 34 32
60 59 55 50 48 50 53 58 54 59 55 51 51 48 47 46 38 41 41 38 34 35 38 44 48 50 51 52 51 52 40 36 38 38 35 35 32 31 31 30 33 32 35 35 36 38 38 37 36
62 65 58 54 52 50 56 56 59 60 54 53 54 53 50 48 47 50 44 38 37 40 44 49 50 49 52 53 49 43 35 35 35 34 34 34 31 30 31 29 31 33 35 39 36 38 40 38 36
67 65 63 61 54 56 53 61 62 56 51 54 52 51 53 52 49 48 39 43 41 44 46 47 49 46 46 48 45 39 36 35 35 34 35 33 31 30 33 31 32 35 36 42 38 40 40 37 35
78 75 72 61 60 63 61 66 62 56 52 53 55 55 55 53 48 45 40 39 44 45 44 47 45 42 44 42 42 40 37 33 34 34 34 33 32 31 33 33 36 36 38 41 43 40 39 37 36
77 73 80 71 62 62 68 63 59 59 57 58 57 55 55 53 51 44 38 43 46 47 48 47 43 42 43 39 40 37 33 32 34 35 32 32 31 33 36 37 39 35 40 41 39 40 40 37 33
74 71 70 81 73 71 69 74 66 64 60 57 58 55 51 49 47 40 42 41 45 44 45 41 42 44 42 42 39 31 31 34 35 35 31 30 31 36 36 38 38 37 37 39 38 39 38 36 34
65 68 69 66 76 78 75 72 67 64 62 58 56 53 46 42 36 37 39 41 43 42 37 37 39 39 39 37 32 31 32 33 35 33 29 28 34 34 37 35 34 37 38 36 36 38 33 29 24
64 66 64 62 59 71 77 71 67 65 57 53 49 49 47 43 40 43 41 40 37 36 36 37 37 35 38 35 31 31 31 30 32 28 27 32 33 36 33 30 33 36 31 34 34 30 30 30 30
66 66 64 62 58 59 61 67 63 59 56 50 45 40 38 38 41 39 36 36 36 37 37 34 38 38 34 35 32 30 26 27 25 25 29 30 34 32 29 30 33 31 30 28 27 29 29 25 23
70 66 63 61 59 57 57 66 58 50 49 46 35 27 28 32 32 32 31 35 37 34 32 32 33 34 35 36 31 25 25 22 21 27 28 31 29 27 28 31 31 28 24 22 25 26 21 19 19
69 66 63 61 58 56 56 60 53 42 43 33 25 24 27 30 31 30 34 37 33 30 31 31 30 34 33 31 27 23 21 20 24 27 30 26 24 25 29 28 27 24 19 20 22 18 12 11 12
68 66 66 64 62 61 53 55 50 38 33 29 31 28 28 32 32 33 33 29 27 28 28 31 33 32 31 25 25 20 18 23 25 28 25 21 22 25 25 24 23 21 16 18 17 12 10 10 9
66 65 62 63 64 58 55 54 41 31 34 31 30 30 32 31 32 29 24 25 25 26 27 28 29 29 25 20 17 16 20 23 26 25 19 19 22 23 20 22 19 14 13 15 12 9 8 9 8
63 64 64 65 62 57 51 54 42 32 32 28 17 33 34 34 31 23 23 25 23 26 27 27 25 24 18 16 16 18 20 23 24 19 18 19 21 18 18 18 15 13 13 13 10 9 10 8 7
52 61 56 59 63 59 56 43 38 37 35 27 26 22 33 30 26 23 25 22 23 22 22 23 23 19 16 14 17 18 20 21 18 16 17 19 16 14 17 15 13 14 14 12 10 9 10 6 6
40 47 52 56 57 58 53 45 41 38 39 29 32 31 25 20 21 19 20 23 21 18 18 19 17 15 14 15 17 18 19 17 15 16 19 18 13 13 16 16 13 14 12 11 12 12 11 10 8
38 45 49 52 53 56 53 48 44 42 41 33 33 37 32 27 22 22 22 19 16 15 16 15 14 16 14 16 17 16 16 14 14 17 19 17 15 15 16 16 12 12 9 10 14 14 13 14 11
34 43 49 52 52 54 54 52 51 47 43 32 36 35 27 19 24 22 20 16 15 13 14 16 14 13 13 15 14 14 14 14 17 19 17 16 15 15 13 14 10 8 9 10 15 16 12 9 9